Probability
0 0 0 0 0 0 0 0 0 0 0 0 0 0 0 0 0 0 0 0 0 0 0 0 0 0 0 0 0 0 0 0 0 0 0 0 0 0 0 0 0 0 0
0 0 0 0 0 0 0 0 0 0 0 0 0 0 0 0 0 0 0 0 0 0 0 0 0 0 0 0 0 0 0 0 0 0 0 0 0 0 0 0 0 0 0
0 0 0 0 0 0 0 0 0 0 0 0 0 0 0 0 0 0 0 0 0 0 0 0 0 0 0 0 0 0 0 0 0 0 0 0 0 0 0 0 0 0 0
0 0 0 0 0 0 0 0 0 0 0 0 0 0 0 0 0 0 0 0 0 0 0 0 0 0 0 0 0 0 0 0 0 0 0 0 0 0 0 0 0 0 0
0 0 0 0 0 0 0 0 0 0 0 0 0 0 0 0 0 0 0 0 0 0 0 0 0 0 0 0 0 0 0 0 0 0 0 0 0 0 0 0 0 0 0
0 0 0 0 0 0 0 0 0 0 0 0 0 0 0 0 0 0 0 0 0 0 0 0 0 0 0 0 0 0 0 0 0 0 0 0 0 0 0 0 0 0 0
0 0 0 0 0 0 0 0 0 0 0 0 0 0 0 0 0 0 0 0 0 0 0 0 0 0 0 0 0 0 0 0 0 0 0 0 0 0 0 0 0 0 0
0 0 0 0 0 0 0 0 0 0 0 0 0 0 0 0 0 0 0 0 0 0 0 0 0 0 0 0 0 0 0 0 0 0 0 0 0 0 0 0 0 0 0
0 0 0 0 0 0 0 0 0 0 0 0 0 0 0 0 0 0 0 0 0 0 0 0 0 0 0 0 0 0 0 0 0 0 0 0 0 0 0 0 0 0 0
0 0 0 0 0 0 0 0 0 0 0 0 0 0 0 0 0 0 0 0 0 0 0 0 0 0 0 0 0 0 0 0 0 0 0 0 0 0 0 0 0 0 0
0 0 0 0 0 0 0 0 0 0 0 0 0 0 0 0 0 0 0 0 0 0 0 0 0 0 0 0 0 0 0 0 0 0 0 0 0 0 0 0 0 0 0
0 0 0 0 0 0 0 0 0 0 0 0 0 0 0 0 0 0 0 0 0 0 0 0 0 0 0 0 0 0 0 0 0 0 0 0 0 0 0 0 0 0 0
0 0 0 0 0 0 0 0 0 0 0 0 0 0 0 0 0 0 0 0 0 0 0 0 0 0 0 0 0 0 0 0 0 0 0 0 0 0 0 0 0 0 0
0 0 0 0 0 0 0 0 0 0 0 0 0 0 0 0 0 0 0 0 0 0 0 0 0 0 0 0 0 0 0 0 0 0 0 0 0 0 0 0 0 0 0
0 0 0 0 0 0 0 0 0 0 0 0 0 0 0 0 0 0 0 0 0 0 0 0 0 0 0 0 0 0 0 0 0 0 0 0 0 0 0 0 0 0 0
0 0 0 0 0 0 0 0 0 0 0 0 0 0 0 0 0 0 0 0 0 0 0 0 0 0 0 0 0 0 0 0 0 0 0 0 0 0 0 0 0 0 0
0 0 0 0 0 0 0 0 0 0 0 0 0 0 0 0 0 0 0 0 0 0 0 0 0 0 0 0 0 0 0 0 0 0 0 0 0 0 0 0 0 0 0
0 0 0 0 0 0 0 0 0 0 0 0 0 0 0 0 0 0 0 0 0 0 0 0 0 0 0 0 0 0 0 0 0 0 0 0 0 0 0 0 0 0 0
0 0 0 0 0 0 0 0 0 0 0 0 0 0 0 0 0 0 0 0 0 0 0 0 0 0 0 0 0 0 0 0 0 0 0 0 0 0 0 0 0 0 0
0 0 0 0 0 0 0 0 0 0 0 0 0 0 0 0 0 0 0 0 0 0 0 0 0 0 0 0 0 0 0 0 0 0 0 0 0 0 0 0 0 0 0
0 0 0 0 0 0 0 0 0 0 0 0 0 0 0 0 0 0 0 0 0 0 0 0 0 0 0 0 0 0 0 0 0 0 0 0 0 0 0 0 0 0 0
0 0 0 0 0 0 0 0 0 0 0 0 0 0 0 0 0 0 0 0 0 0 0 0 0 0 0 0 0 0 0 0 0 0 0 0 0 0 0 0 0 0 0
0 0 0 0 0 0 0 0 0 0 0 0 0 0 0 0 0 0 0 0 0 0 0 0 0 0 0 0 0 0 0 0 0 0 0 0 0 0 0 0 0 0 0
0 0 0 0 0 0 0 0 0 0 0 0 0 0 0 0 0 0 0 0 0 0 0 0 0 0 0 0 0 0 0 0 0 0 0 0 0 0 0 0 0 0 0
0 0 0 0 0 0 0 0 0 0 0 0 0 0 0 0 0 0 0 0 0 0 0 0 0 0 0 0 0 0 0 0 0 0 0 0 0 0 0 0 0 0 0
0 0 0 0 0 0 0 0 0 0 0 0 0 0 0 0 0 0 0 0 0 0 0 0 0 0 0 0 0 0 0 0 0 0 0 0 0 0 0 0 0 0 0
Height
5627 5634 5642 5649 5655 5661 5667 5672 5677 5681 5684 5686 5688 5689 5689 5689 5688 5687 5686 5685 5683 5680 5677 5673 5669 5665 5660 5654 5649 5643 5637 5631 5626 5621 5613 5605 5598 5592 5585 5579 5572 5565 5558
5609 5617 5625 5632 5640 5647 5654 5660 5666 5670 5673 5676 5678 5679 5680 5680 5679 5678 5676 5675 5672 5669 5665 5662 5657 5652 5647 5641 5635 5629 5623 5616 5610 5605 5597 5589 5581 5573 5567 5560 5552 5544 5534
5593 5601 5609 5618 5626 5634 5642 5649 5655 5660 5664 5666 5668 5670 5671 5671 5670 5669 5667 5664 5661 5658 5654 5649 5644 5639 5633 5627 5621 5614 5607 5600 5593 5586 5580 5572 5563 5554 5547 5540 5531 5520 5509
5581 5589 5597 5606 5615 5624 5632 5639 5646 5650 5654 5657 5659 5660 5661 5661 5660 5658 5656 5653 5650 5646 5642 5637 5631 5625 5619 5613 5606 5599 5591 5583 5575 5568 5562 5554 5545 5535 5526 5519 5511 5497 5484
5573 5581 5589 5598 5607 5616 5624 5631 5637 5642 5646 5649 5650 5651 5652 5652 5650 5648 5646 5642 5639 5634 5629 5623 5617 5611 5604 5598 5590 5583 5575 5567 5559 5551 5544 5535 5525 5515 5506 5495 5486 5476 5461
5568 5576 5584 5593 5602 5610 5618 5625 5631 5635 5638 5640 5642 5642 5642 5642 5640 5638 5635 5631 5627 5622 5616 5610 5603 5596 5589 5582 5574 5566 5557 5548 5540 5533 5524 5514 5504 5493 5483 5472 5461 5452 5443
5567 5575 5583 5591 5599 5607 5614 5620 5625 5628 5631 5633 5634 5634 5633 5631 5629 5627 5623 5619 5614 5609 5602 5596 5589 5581 5573 5566 5558 5549 5539 5528 5520 5511 5502 5491 5482 5471 5461 5451 5438 5428 5419
5567 5575 5583 5590 5597 5604 5610 5615 5619 5621 5623 5624 5625 5625 5624 5622 5619 5616 5612 5607 5601 5595 5589 5582 5574 5566 5557 5549 5542 5533 5522 5510 5500 5489 5479 5468 5457 5446 5437 5428 5419 5411 5402
5570 5577 5584 5590 5596 5602 5606 5610 5613 5615 5616 5617 5617 5617 5615 5612 5609 5605 5600 5594 5588 5581 5574 5567 5559 5550 5542 5533 5525 5515 5505 5492 5479 5467 5456 5445 5435 5425 5416 5409 5401 5393 5387
5575 5580 5585 5590 5595 5599 5603 5606 5608 5609 5610 5610 5610 5608 5606 5603 5599 5594 5588 5582 5575 5568 5560 5551 5543 5534 5525 5514 5505 5495 5485 5473 5461 5448 5435 5424 5416 5407 5398 5391 5384 5376 5368
5580 5583 5587 5590 5594 5598 5600 5602 5603 5604 5604 5604 5602 5599 5596 5593 5588 5582 5576 5569 5562 5554 5545 5536 5527 5517 5507 5496 5485 5474 5463 5453 5442 5431 5420 5411 5402 5394 5385 5377 5368 5359 5350
5583 5585 5588 5591 5594 5596 5597 5598 5598 5598 5598 5597 5594 5590 5586 5581 5576 5569 5563 5556 5548 5540 5531 5521 5510 5499 5488 5476 5464 5453 5442 5432 5423 5415 5407 5400 5392 5384 5375 5366 5356 5346 5336
5586 5588 5590 5591 5592 5593 5594 5594 5594 5593 5591 5588 5584 5580 5575 5570 5564 5558 5550 5542 5534 5525 5514 5503 5492 5481 5469 5456 5444 5434 5424 5416 5409 5403 5397 5390 5383 5375 5366 5357 5347 5337 5327
5588 5589 5589 5590 5590 5590 5590 5589 5587 5585 5582 5579 5575 5570 5565 5559 5553 5546 5538 5529 5519 5508 5496 5484 5472 5460 5448 5437 5426 5418 5411 5405 5400 5395 5389 5383 5375 5366 5357 5348 5339 5331 5323
5588 5588 5588 5588 5587 5586 5584 5582 5580 5577 5574 5570 5566 5561 5555 5549 5542 5534 5524 5514 5502 5491 5478 5465 5452 5440 5429 5419 5412 5406 5402 5397 5393 5388 5383 5376 5368 5359 5350 5341 5333 5324 5316
5587 5586 5585 5584 5582 5580 5578 5576 5573 5570 5566 5562 5558 5552 5546 5539 5530 5520 5509 5497 5484 5472 5459 5446 5434 5423 5415 5408 5403 5400 5396 5392 5388 5383 5377 5369 5361 5353 5345 5336 5328 5320 5312
5584 5583 5581 5579 5577 5575 5572 5570 5567 5564 5559 5555 5549 5543 5536 5527 5517 5505 5493 5479 5466 5453 5440 5429 5420 5412 5407 5403 5399 5396 5393 5389 5384 5378 5372 5364 5356 5348 5340 5332 5324 5317 5309
5581 5579 5577 5575 5572 5570 5567 5564 5560 5556 5552 5546 5540 5532 5523 5513 5502 5490 5477 5463 5450 5438 5428 5419 5412 5408 5404 5401 5398 5394 5390 5386 5380 5374 5367 5359 5352 5344 5337 5329 5322 5314 5307
5577 5575 5572 5570 5567 5564 5561 5558 5554 5549 5544 5537 5530 5521 5511 5500 5489 5476 5463 5451 5439 5429 5421 5415 5410 5406 5403 5400 5396 5392 5388 5382 5377 5370 5363 5356 5348 5341 5334 5327 5319 5312 5305
5573 5570 5568 5565 5562 5559 5555 5551 5547 5541 5535 5528 5520 5510 5500 5488 5476 5464 5453 5442 5433 5425 5419 5414 5409 5406 5402 5398 5394 5390 5385 5379 5373 5366 5359 5353 5345 5338 5331 5324 5317 5311 5304
5568 5566 5563 5560 5557 5553 5549 5544 5539 5533 5526 5519 5510 5500 5489 5478 5467 5456 5446 5437 5429 5423 5417 5413 5408 5405 5401 5396 5392 5387 5382 5376 5370 5363 5356 5350 5343 5336 5329 5322 5316 5309 5303
5564 5561 5558 5554 5551 5547 5542 5537 5531 5525 5518 5509 5500 5490 5480 5469 5459 5450 5441 5433 5426 5421 5416 5411 5407 5403 5399 5394 5389 5384 5379 5373 5367 5360 5354 5347 5341 5334 5328 5321 5315 5308 5301
5558 5555 5552 5548 5544 5540 5535 5530 5523 5516 5509 5500 5490 5480 5470 5461 5451 5443 5435 5429 5423 5418 5413 5409 5405 5401 5397 5392 5387 5381 5376 5370 5364 5358 5352 5345 5339 5333 5326 5320 5313 5306 5300
5552 5549 5546 5542 5537 5533 5527 5522 5515 5508 5500 5491 5481 5471 5462 5452 5444 5437 5430 5424 5420 5415 5411 5406 5402 5398 5393 5389 5384 5378 5373 5367 5361 5355 5349 5343 5337 5331 5324 5318 5312 5305 5299
5546 5543 5539 5535 5530 5525 5520 5514 5507 5499 5491 5481 5472 5462 5453 5444 5437 5431 5425 5420 5416 5412 5408 5403 5399 5395 5390 5385 5380 5375 5369 5364 5358 5352 5346 5340 5334 5328 5322 5316 5310 5304 5298
5540 5536 5532 5528 5523 5518 5512 5506 5498 5490 5482 5472 5462 5453 5445 5437 5431 5425 5421 5416 5412 5408 5404 5400 5396 5391 5386 5381 5376 5371 5366 5360 5355 5349 5343 5338 5332 5326 5321 5315 5309 5303 5297
Wind_Speed
59 60 61 61 61 61 58 55 52 50 48 47 46 45 44 42 42 42 43 43 44 44 44 45 46 49 52 55 58 60 62 63 64 64 66 66 67 67 66 67 68 70 73
55 56 57 58 58 58 57 54 51 48 46 45 44 43 42 41 41 42 44 45 45 45 45 47 49 52 56 59 61 62 64 65 66 66 67 68 68 69 69 71 73 76 80
50 51 53 55 54 54 53 51 48 46 44 42 41 40 40 40 41 43 44 45 45 45 47 50 54 57 59 60 62 64 66 67 68 68 68 68 69 72 73 75 78 82 88
42 45 47 49 50 50 49 47 44 42 41 40 39 39 39 40 41 43 44 45 46 48 51 54 57 58 60 62 64 66 67 67 68 69 69 70 72 75 78 80 83 88 91
35 38 41 43 44 44 43 42 40 39 37 37 37 37 38 40 41 42 44 46 48 51 54 56 58 60 62 64 66 67 67 68 69 71 71 73 76 79 82 85 87 88 87
28 31 34 36 38 39 38 37 35 35 34 34 34 36 38 40 40 42 45 48 51 53 55 57 59 61 63 65 67 67 69 70 72 73 75 78 81 84 85 86 86 83 77
23 25 27 30 32 33 32 31 31 32 32 32 34 38 40 41 42 45 48 50 51 53 56 58 60 63 64 66 67 68 70 73 76 78 79 82 84 85 85 82 78 73 67
21 23 25 27 28 28 28 29 29 30 31 33 36 37 39 42 44 45 47 49 52 54 57 59 61 63 65 66 68 70 73 76 79 82 84 85 85 83 79 74 68 62 57
20 22 23 24 24 25 26 26 28 30 32 34 34 36 39 40 42 44 47 50 53 56 58 60 62 64 66 69 71 74 76 79 82 85 85 83 79 74 69 63 58 55 53
19 20 21 21 21 22 23 25 27 30 31 32 33 35 37 39 42 45 48 51 54 56 59 61 64 66 70 73 75 77 79 81 82 81 78 73 67 61 57 55 54 54 54
15 15 16 16 18 20 21 23 24 25 25 28 31 33 36 40 43 46 49 52 54 57 60 63 67 70 73 75 78 80 80 79 76 70 64 58 53 51 51 52 53 54 54
7 9 11 13 14 16 16 17 18 21 24 28 31 34 38 42 45 47 50 53 56 59 63 67 71 73 76 78 80 80 77 71 64 56 49 45 44 45 47 50 52 52 51
4 4 4 5 7 10 12 14 18 22 26 29 33 36 39 42 45 48 52 56 60 64 68 72 74 76 79 80 78 73 65 56 47 41 38 38 39 42 45 47 47 46 44
3 3 4 6 9 12 15 18 22 25 28 32 34 37 40 43 47 51 56 60 65 69 72 75 77 78 77 73 66 57 46 39 34 32 31 33 37 41 43 42 41 39 36
6 7 9 11 14 17 20 22 25 28 30 33 35 39 42 46 51 56 61 65 69 72 74 75 75 72 66 56 46 37 31 28 26 27 30 34 37 39 39 38 36 34 32
11 12 14 16 19 21 23 25 27 29 31 34 37 41 45 50 55 60 65 69 71 72 72 69 65 57 47 37 29 25 23 22 24 27 31 34 35 34 34 33 33 31 30
15 16 18 20 21 23 24 26 28 30 33 36 40 44 49 54 59 64 67 69 69 67 62 56 47 37 29 22 20 19 19 21 24 28 31 32 32 31 31 30 30 29 28
18 19 20 21 22 24 26 27 30 32 36 39 44 48 54 58 62 65 65 64 61 55 47 39 30 23 18 16 16 18 20 22 25 29 31 31 30 30 29 29 28 27 26
20 20 21 22 23 25 27 29 32 35 38 42 47 52 56 59 62 62 59 54 48 40 32 26 20 16 15 16 17 19 22 24 26 29 30 30 29 29 28 28 27 27 27
21 22 22 24 25 27 29 31 34 37 41 45 50 54 57 59 59 54 50 43 36 30 25 21 17 16 16 17 19 21 23 25 27 29 30 30 29 29 28 27 27 27 27
22 23 24 25 27 29 30 33 36 40 43 48 52 54 56 56 52 47 41 35 29 25 22 19 17 17 18 19 21 23 24 26 27 29 29 29 29 28 28 27 27 27 26
23 24 25 27 28 30 33 36 39 42 45 50 53 54 54 51 46 41 35 30 26 23 20 18 18 18 19 21 22 24 25 27 28 28 29 29 28 27 26 26 26 27 26
24 26 27 28 30 32 35 38 41 44 47 51 52 53 51 47 42 36 31 27 24 21 20 19 18 19 20 22 23 25 26 27 27 27 28 28 27 26 25 25 25 26 27
26 27 29 30 32 34 37 39 42 45 49 51 52 51 48 43 38 32 27 24 22 21 20 20 20 21 22 23 24 25 26 26 27 27 27 27 26 25 25 25 25 25 26
27 29 30 32 34 36 38 41 43 47 49 51 51 49 45 39 33 28 24 23 22 22 21 21 21 22 23 24 25 26 26 26 26 26 26 26 26 25 25 25 25 25 25
29 30 32 33 35 37 39 42 44 48 50 51 50 47 42 35 29 25 23 21 21 22 22 22 22 24 24 25 25 26 26 26 26 26 26 25 25 25 25 25 25 24 25
Wind_Direction
243 242 241 240 240 241 243 245 248 250 253 255 257 260 263 265 267 270 273 278 281 284 286 287 289 290 291 293 294 295 297 297 298 298 298 298 297 296 295 295 294 294 294
239 237 236 235 235 236 238 241 244 248 251 253 256 259 261 263 267 271 275 279 282 284 286 288 290 291 292 293 294 295 296 297 298 298 298 298 297 296 296 295 296 296 296
236 234 232 231 231 232 233 237 240 244 248 251 254 257 259 262 266 270 276 280 283 286 287 289 291 291 292 293 295 296 297 297 298 298 298 297 297 296 297 297 298 299 299
233 231 229 228 227 228 229 232 236 241 246 250 253 256 259 263 267 273 277 280 283 286 288 289 290 291 293 294 295 296 297 298 298 298 298 298 297 298 298 299 300 301 302
228 226 225 224 224 223 225 229 234 239 244 249 253 256 260 264 269 274 278 282 285 288 288 289 291 292 294 295 296 297 298 297 297 298 298 298 299 299 300 301 302 303 303
219 218 218 218 218 218 221 226 232 238 243 247 252 257 261 265 270 275 279 283 285 287 289 291 292 293 295 296 298 298 298 298 298 299 299 300 300 301 302 303 303 303 302
201 204 207 208 210 213 217 223 230 236 240 247 253 258 262 267 270 274 279 284 286 289 291 293 294 295 297 298 298 299 299 299 300 300 301 301 302 302 303 304 304 304 303
182 188 194 198 202 207 214 222 229 236 242 248 256 261 264 267 271 278 284 288 290 292 293 295 296 297 298 298 299 299 300 300 301 301 303 304 304 304 304 304 304 303 302
172 177 184 191 198 206 214 222 233 240 248 251 257 265 269 275 282 286 289 292 293 295 296 297 298 299 299 299 300 301 301 302 302 303 304 304 304 304 305 305 305 304 303
160 172 181 191 201 211 222 231 238 245 251 257 263 272 280 286 289 291 293 295 296 298 299 300 300 301 301 301 301 302 302 302 303 304 305 305 305 306 306 307 307 307 306
157 171 184 196 211 224 235 242 248 256 264 272 280 285 289 291 293 296 297 299 300 301 301 302 302 302 302 302 303 303 303 304 304 304 304 305 306 308 309 310 311 311 311
171 192 204 211 225 236 244 255 267 277 283 286 289 292 294 297 299 300 301 302 302 303 303 303 303 303 303 303 304 304 304 305 305 305 306 306 308 310 312 314 314 315 315
167 196 219 242 261 272 281 285 287 289 291 294 297 299 301 302 303 304 305 305 305 305 305 304 304 304 304 304 305 305 306 306 307 307 309 310 312 314 316 317 318 318 318
18 338 311 300 296 295 295 296 298 299 301 303 304 306 306 307 307 308 307 307 307 306 306 305 305 305 305 305 306 306 307 308 309 311 314 316 318 319 320 321 322 323 322
341 327 317 310 306 305 305 306 306 307 308 309 309 310 310 310 310 310 309 309 308 307 307 307 307 307 308 308 308 308 310 313 315 318 321 322 322 323 324 326 328 329 329
324 318 314 311 310 310 310 310 310 310 311 312 313 313 312 312 312 311 311 310 309 309 309 309 310 311 311 312 313 316 319 320 323 326 327 327 328 329 330 331 333 334 334
316 314 312 311 311 312 312 312 313 313 313 314 314 314 314 314 314 314 313 312 312 313 313 314 316 317 318 320 324 327 328 327 328 330 332 332 333 333 335 335 336 337 337
314 314 314 314 314 314 314 314 315 315 315 316 316 317 317 317 318 317 316 316 317 318 319 322 325 328 331 333 334 334 333 332 332 334 335 336 337 338 338 339 340 341 341
314 315 315 315 315 315 315 315 315 316 316 318 318 319 319 320 320 320 320 321 323 325 329 333 336 339 339 338 336 335 334 335 336 337 338 339 340 341 341 342 343 344 344
314 314 314 314 314 314 314 315 316 317 318 319 320 321 322 323 323 324 325 327 329 333 337 339 339 338 337 336 336 336 336 336 337 338 340 340 341 343 344 345 345 345 345
312 312 313 313 313 314 314 315 317 318 319 321 322 323 324 325 326 326 328 330 333 336 338 337 337 335 334 334 336 336 337 337 338 339 340 341 342 343 344 345 345 344 344
311 311 311 312 313 314 315 316 318 319 321 323 324 325 326 326 326 327 328 330 333 335 336 335 334 333 334 334 335 336 337 338 339 339 340 342 342 342 342 342 343 345 346
310 310 311 312 313 314 315 317 319 321 323 324 325 326 326 326 325 325 326 328 331 334 333 332 331 332 332 333 334 335 336 337 338 338 339 341 342 342 342 342 344 346 349
309 310 311 312 313 314 316 318 320 322 324 325 326 326 326 325 324 323 324 327 330 332 331 329 329 330 331 331 333 334 334 335 336 337 338 340 342 343 343 344 346 348 350
309 310 311 312 313 314 316 319 321 324 325 326 326 326 326 324 322 321 323 325 327 329 329 327 327 328 329 330 331 333 333 334 335 336 337 339 341 343 344 346 347 349 350
308 310 311 311 313 315 318 320 322 325 326 327 326 326 325 323 321 320 321 322 324 326 326 325 325 327 328 329 329 331 331 332 333 334 336 337 339 341 344 346 348 350 351